Weather History for Albert Lea, MN

Change the Weather History Date:

Tuesday, December 10, 2013

  Actual Average Record
Temperature  
Mean Temperature 10 °F -  
Max Temperature 17 °F 31 °F 46 °F (2002)
Min Temperature 3 °F 17 °F -5 °F (2000)
Degree Days  
Heating Degree Days 55    
Moisture  
Dew Point 5 °F    
Average Humidity 79    
Maximum Humidity 93    
Minimum Humidity 62    
Precipitation  
Precipitation 0.00 in - - ()
Sea Level Pressure  
Sea Level Pressure 30.01 in    
Wind  
Wind Speed 12 mph (West)    
Max Wind Speed 20 mph    
Max Gust Speed 31 mph    
Visibility 6 miles    
Events Snow    
Averages and records for this station are not official NWS values.
T = Trace of Precipitation, MM = Missing Value Source: NWS Daily Summary

Daily Weather History Graph

Daily Weather History Graph

Search for Another Location

Airport:

Trip Planner

Search our weather history database for the weather conditions in past years. The results will help you decide how hot, cold, wet, or windy it might be!

Date:

Astronomy

Dec. 10, 2013 Rise Set
Actual Time 7:36 AM CST 4:36 PM CST
Civil Twilight 7:03 AM CST 5:09 PM CST
Nautical Twilight 6:27 AM CST 5:45 PM CST
Astronomical Twilight 5:52 AM CST 6:20 PM CST
Moon 12:48 PM CST (12/10) 12:44 AM CST (12/10)
Length of Visible Light 10h 05m
Length of Day
9h 00m
Waxing Gibbous, 62% of the Moon is Illuminated
Dec 10
Waxing Gibbous
Dec 17
Full
Dec 25
Last Quarter
Jan 1
New
Jan 7
First Quarter

Hourly Weather History & Observations

Time (CST) Temp. Windchill Dew Point Humidity Pressure Visibility Wind Dir Wind Speed Gust Speed Precip Events Conditions
12:12 AM 6.8 °F -10.0 °F -0.4 °F 72% 29.86 in 10.0 mi SSW 13.8 mph 26.5 mph N/A   Overcast
12:32 AM 8.6 °F -7.0 °F 1.4 °F 73% 29.85 in 10.0 mi SSW 12.7 mph 17.3 mph N/A   Overcast
12:52 AM 8.6 °F -6.3 °F 1.4 °F 73% 29.84 in 10.0 mi SW 11.5 mph 21.9 mph N/A   Overcast
1:12 AM 10.4 °F -6.0 °F 3.2 °F 73% 29.82 in 4.0 mi SSW 15.0 mph 18.4 mph N/A Snow Light Snow
1:32 AM 10.4 °F -6.0 °F 6.8 °F 85% 29.81 in 4.0 mi SW 15.0 mph 21.9 mph N/A Snow Light Snow
1:52 AM 10.4 °F -6.0 °F 6.8 °F 85% 29.80 in 3.0 mi SW 15.0 mph 21.9 mph N/A Snow Light Snow
2:12 AM 12.2 °F -1.0 °F 6.8 °F 79% 29.80 in 5.0 mi SW 10.4 mph 21.9 mph N/A Snow Light Snow
2:32 AM 12.2 °F -2.5 °F 6.8 °F 79% 29.80 in 10.0 mi SW 12.7 mph 20.7 mph N/A   Overcast
2:52 AM 12.2 °F -1.8 °F 6.8 °F 79% 29.79 in 7.0 mi SW 11.5 mph 19.6 mph N/A   Overcast
3:12 AM 12.2 °F -1.0 °F 8.6 °F 85% 29.79 in 7.0 mi SW 10.4 mph - N/A Snow Light Snow
3:32 AM 14.0 °F 0.5 °F 10.4 °F 86% 29.79 in 2.5 mi WSW 11.5 mph 20.7 mph N/A Snow Light Snow
3:52 AM 14.0 °F 1.2 °F 10.4 °F 86% 29.78 in 2.5 mi WSW 10.4 mph 19.6 mph N/A Snow Light Snow
4:12 AM 15.8 °F 2.7 °F 12.2 °F 86% 29.79 in 2.5 mi WSW 11.5 mph 17.3 mph N/A Snow Light Snow
4:32 AM 15.8 °F 0.9 °F 12.2 °F 86% 29.79 in 3.0 mi WSW 15.0 mph 19.6 mph N/A Snow Light Snow
4:52 AM 17.6 °F 1.3 °F 12.2 °F 79% 29.80 in 3.0 mi West 19.6 mph 28.8 mph N/A Snow Light Snow
5:12 AM 14.0 °F -0.8 °F 8.6 °F 79% 29.82 in 10.0 mi WNW 13.8 mph 28.8 mph N/A   Scattered Clouds
5:32 AM - - - N/A% 29.84 in - North - - N/A   Unknown
5:52 AM 10.4 °F -6.6 °F 6.8 °F 85% 29.86 in - WNW 16.1 mph 31.1 mph N/A   Mostly Cloudy
6:12 AM 8.6 °F -10.0 °F 3.2 °F 79% 29.87 in 7.0 mi WNW 18.4 mph 26.5 mph N/A   Mostly Cloudy
6:32 AM 6.8 °F -11.8 °F 1.4 °F 79% 29.89 in 7.0 mi WNW 17.3 mph 25.3 mph N/A   Scattered Clouds
6:52 AM 6.8 °F -11.8 °F 1.4 °F 79% 29.90 in 10.0 mi WNW 17.3 mph 29.9 mph N/A   Clear
7:12 AM 6.8 °F -10.7 °F 1.4 °F 79% 29.93 in 10.0 mi WNW 15.0 mph 31.1 mph N/A   Scattered Clouds
7:32 AM 6.8 °F -11.8 °F 1.4 °F 79% 29.94 in 1.2 mi WNW 17.3 mph 29.9 mph N/A Snow Light Snow
7:51 AM 5.0 °F -12.3 °F 1.4 °F 85% 29.95 in 2.5 mi WNW 13.8 mph 23.0 mph N/A   Overcast
8:12 AM 3.2 °F -16.5 °F -0.4 °F 85% 29.96 in 4.0 mi WNW 17.3 mph 24.2 mph N/A   Haze
8:32 AM 3.2 °F -15.3 °F -0.4 °F 85% 29.98 in 2.5 mi WNW 15.0 mph 21.9 mph N/A   Haze
8:51 AM 3.2 °F -13.9 °F -0.4 °F 85% 29.99 in 2.5 mi WNW 12.7 mph 23.0 mph N/A   Haze
9:12 AM 3.2 °F -13.1 °F -0.4 °F 85% 29.99 in 4.0 mi WNW 11.5 mph 18.4 mph N/A   Haze
9:32 AM 5.0 °F -10.8 °F -0.4 °F 78% 30.02 in 7.0 mi West 11.5 mph 18.4 mph N/A   Overcast
9:52 AM 5.0 °F -9.1 °F -0.4 °F 78% 30.02 in 10.0 mi West 9.2 mph 18.4 mph N/A   Overcast
10:12 AM 5.0 °F -10.0 °F -2.2 °F 72% 30.04 in 10.0 mi West 10.4 mph 24.2 mph N/A   Overcast
10:32 AM 6.8 °F -9.3 °F -2.2 °F 67% 30.04 in 10.0 mi WNW 12.7 mph 19.6 mph N/A   Mostly Cloudy
10:52 AM 6.8 °F -9.3 °F -0.4 °F 72% 30.05 in 10.0 mi West 12.7 mph 18.4 mph N/A   Scattered Clouds
11:12 AM 6.8 °F -8.6 °F -0.4 °F 72% 30.07 in 10.0 mi West 11.5 mph 17.3 mph N/A   Clear
11:32 AM 6.8 °F -9.3 °F -0.4 °F 72% 30.06 in 10.0 mi West 12.7 mph 23.0 mph N/A   Scattered Clouds
11:52 AM 8.6 °F -6.3 °F -0.4 °F 67% 30.07 in 10.0 mi West 11.5 mph 20.7 mph N/A   Scattered Clouds
12:12 PM 8.6 °F -6.3 °F -0.4 °F 67% 30.07 in 10.0 mi West 11.5 mph 19.6 mph N/A   Clear
12:32 PM 10.4 °F -4.1 °F -0.4 °F 62% 30.07 in 10.0 mi West 11.5 mph 21.9 mph N/A   Clear
12:52 PM 10.4 °F -4.8 °F 1.4 °F 67% 30.08 in 10.0 mi West 12.7 mph 18.4 mph N/A   Clear
1:12 PM 10.4 °F -5.4 °F 1.4 °F 67% 30.07 in 10.0 mi West 13.8 mph 18.4 mph N/A   Clear
1:32 PM 10.4 °F -4.8 °F 1.4 °F 67% 30.07 in 10.0 mi West 12.7 mph 17.3 mph N/A   Clear
1:52 PM 12.2 °F 0.7 °F 1.4 °F 62% 30.07 in 10.0 mi West 8.1 mph 18.4 mph N/A   Clear
2:12 PM 10.4 °F -4.1 °F 1.4 °F 67% 30.07 in 10.0 mi West 11.5 mph 17.3 mph N/A   Clear
2:32 PM 10.4 °F -3.3 °F 1.4 °F 67% 30.06 in 10.0 mi West 10.4 mph - N/A   Clear
2:52 PM 10.4 °F -1.5 °F 1.4 °F 67% 30.06 in 10.0 mi West 8.1 mph - N/A   Clear
3:12 PM 12.2 °F 0.7 °F 3.2 °F 67% 30.06 in 10.0 mi West 8.1 mph - N/A   Clear
3:32 PM 12.2 °F 1.7 °F 3.2 °F 67% 30.06 in 10.0 mi WSW 6.9 mph - N/A   Clear
3:52 PM 12.2 °F 2.9 °F 3.2 °F 67% 30.07 in 10.0 mi West 5.8 mph - N/A   Clear
4:12 PM 12.2 °F 1.7 °F 3.2 °F 67% 30.08 in 10.0 mi West 6.9 mph - N/A   Clear
4:32 PM 12.2 °F 4.3 °F 3.2 °F 67% 30.08 in 10.0 mi WSW 4.6 mph - N/A   Mostly Cloudy
4:52 PM 12.2 °F 4.3 °F 3.2 °F 67% 30.08 in 10.0 mi West 4.6 mph - N/A   Overcast
5:12 PM 12.2 °F 2.9 °F 5.0 °F 73% 30.09 in 10.0 mi WSW 5.8 mph - N/A   Overcast
5:32 PM 12.2 °F 1.7 °F 6.8 °F 79% 30.10 in 4.0 mi WSW 6.9 mph - N/A Snow Light Snow
5:52 PM 12.2 °F 1.7 °F 8.6 °F 85% 30.10 in 2.5 mi SW 6.9 mph - N/A Snow Light Snow
6:12 PM 12.2 °F -0.2 °F 8.6 °F 85% 30.10 in 3.0 mi SW 9.2 mph - N/A Snow Light Snow
6:32 PM 12.2 °F 0.7 °F 8.6 °F 85% 30.10 in 2.5 mi SW 8.1 mph - N/A Snow Light Snow
6:52 PM 12.2 °F 0.7 °F 8.6 °F 85% 30.11 in 3.0 mi WSW 8.1 mph - N/A Snow Light Snow
7:12 PM 12.2 °F 1.7 °F 10.4 °F 92% 30.12 in 2.5 mi SW 6.9 mph - N/A Snow Light Snow
7:32 PM 12.2 °F -0.2 °F 10.4 °F 92% 30.12 in 2.5 mi SW 9.2 mph - N/A Snow Light Snow
7:52 PM 12.2 °F 2.9 °F 10.4 °F 92% 30.13 in 4.0 mi SW 5.8 mph - N/A Snow Light Snow
8:12 PM 14.0 °F 5.1 °F 10.4 °F 86% 30.13 in 3.0 mi WSW 5.8 mph - N/A Snow Light Snow
8:32 PM 14.0 °F 5.1 °F 10.4 °F 86% 30.14 in 3.0 mi WSW 5.8 mph - N/A Snow Light Snow
8:52 PM 14.0 °F 5.1 °F 12.2 °F 93% 30.14 in 3.0 mi WSW 5.8 mph - N/A Snow Light Snow
9:12 PM 15.8 °F 7.2 °F 12.2 °F 86% 30.15 in 3.0 mi WSW 5.8 mph - N/A Snow Light Snow
9:32 PM 15.8 °F 8.6 °F 12.2 °F 86% 30.15 in 3.0 mi West 4.6 mph - N/A Snow Light Snow
9:52 PM 15.8 °F 8.6 °F 12.2 °F 86% 30.16 in 2.0 mi West 4.6 mph - N/A Snow Light Snow
10:12 PM 15.8 °F 8.6 °F 12.2 °F 86% 30.16 in 3.0 mi West 4.6 mph - N/A Snow Light Snow
10:32 PM 15.8 °F 8.6 °F 12.2 °F 86% 30.17 in 3.0 mi West 4.6 mph - N/A Snow Light Snow
10:52 PM 15.8 °F 7.2 °F 12.2 °F 86% 30.18 in 2.5 mi WNW 5.8 mph - N/A Snow Light Snow
11:12 PM 15.8 °F 8.6 °F 12.2 °F 86% 30.18 in 3.0 mi WNW 4.6 mph - N/A Snow Light Snow
11:32 PM 15.8 °F 8.6 °F 12.2 °F 86% 30.19 in 2.5 mi West 4.6 mph - N/A Snow Light Snow
11:52 PM 15.8 °F 10.2 °F 14.0 °F 93% 30.20 in 2.0 mi WNW 3.5 mph - N/A Snow Light Snow